Location: Unspecified
(51.0000°N, 12.0000°E)
Time: 10:01:58
(UTC+02:00)

OTV 5 (USA 277) - Pass Details

Date: 02 May 2019
Orbit: 310 x 325 km, 54.5° (Epoch: 08 May)

Event Time Altitude Azimuth Distance (km) Brightness Sun altitude
Rises 21:59:59 0° 287° (WNW) 2,040 ? -11.8°
Reaches altitude 10° 22:02:01 10° 296° (WNW) 1,210 ? -12.0°
Maximum altitude 22:04:34 38° 8° (N) 494 ? -12.3°
Enters shadow 22:06:48 12° 77° (ENE) 1,088 ? -12.5°
